Terug naar catalogus

COSMOS 1014

ActiefMilitairLEO
NORAD 10931·PAYLOAD·🇷🇺 Russia

Gelanceerd Jun 7, 1978 vanaf Plesetsk Cosmodrome

Loading…

Volgende Passages (komende 24 uur)

TLE

VersSource: Space-Track

Epoch: Sep 14, 2026, 06:42 UTC

1 10931U 78056B   26257.27924941 -.00000028  00000-0 -92001-4 0  9998
2 10931  74.0228 259.2695 0032542 141.6329 230.1461 12.40493955185866

Volg COSMOS 1014 in realtime met AllMySat

Download on the App Store